Weather History for PAIL - June, 2013

Change the Weather History Date:

Tuesday, June 25, 2013

  Actual Average Record
Temperature  
Mean Temperature 62 °F -  
Max Temperature 78 °F 59 °F 85 °F (1953)
Min Temperature 45 °F 45 °F 39 °F (1945)
Degree Days  
Heating Degree Days 4    
Growing Degree Days 12 (Base 50)    
Moisture  
Dew Point 51 °F    
Average Humidity 68    
Maximum Humidity 97    
Minimum Humidity 39    
Precipitation  
Precipitation 0.00 in - - ()
Sea Level Pressure  
Sea Level Pressure 29.68 in    
Wind  
Wind Speed 5 mph (SSW)    
Max Wind Speed 10 mph    
Max Gust Speed -    
Visibility 10 miles    
Events      
Averages and records for this station are not official NWS values.
T = Trace of Precipitation, MM = Missing Value Source: NWS Daily Summary

Daily Weather History Graph

Daily Weather History Graph

Search for Another Location

Airport or City:

Trip Planner

Search our weather history database for the weather conditions in past years. The results will help you decide how hot, cold, wet, or windy it might be!

Date:

Astronomy

Jun. 25, 2013 Rise Set
Actual Time 5:00 AM AKDT 11:44 PM AKDT
Civil Twilight 3:21 AM AKDT 1:22 AM AKDT
Nautical Twilight Sun does not set Sun does not set
Astronomical Twilight Sun does not set Sun does not set
Moon 12:04 AM AKDT (6/25) 8:49 AM AKDT (6/25)
Length of Visible Light 22h 01m
Length of Day
18h 44m
Waning Gibbous, 92% of the Moon is Illuminated
Jun 25
Waning Gibbous
Jun 29
Last Quarter
Jul 7
New
Jul 15
First Quarter
Jul 22
Full

Hourly Weather History & Observations

Time (AKDT) Temp. Dew Point Humidity Pressure Visibility Wind Dir Wind Speed Gust Speed Precip Events Conditions
12:53 AM 54.0 °F 46.9 °F 77% 29.71 in 10.0 mi West 6.9 mph - N/A   Clear
1:53 AM 52.0 °F 46.9 °F 83% 29.70 in 10.0 mi WNW 6.9 mph - N/A   Clear
2:53 AM 50.0 °F 46.9 °F 89% 29.70 in 10.0 mi Calm Calm - N/A   Clear
3:53 AM 48.0 °F 46.9 °F 96% 29.70 in 10.0 mi Calm Calm - N/A   Clear
4:53 AM 48.9 °F 46.9 °F 93% 29.70 in 10.0 mi NNE 3.5 mph - N/A   Clear
5:53 AM 46.9 °F 46.0 °F 97% 29.70 in 10.0 mi Calm Calm - N/A   Clear
6:53 AM 51.1 °F 48.9 °F 92% 29.69 in 10.0 mi North 6.9 mph - N/A   Clear
7:53 AM 54.0 °F 48.9 °F 83% 29.69 in 10.0 mi NNW 3.5 mph - N/A   Partly Cloudy
8:53 AM 61.0 °F 50.0 °F 67% 29.69 in 10.0 mi NNE 5.8 mph - N/A   Mostly Cloudy
9:53 AM 62.1 °F 51.1 °F 67% 29.69 in 10.0 mi ESE 3.5 mph - N/A   Scattered Clouds
10:53 AM 64.9 °F 52.0 °F 63% 29.68 in 10.0 mi WSW 4.6 mph - N/A   Partly Cloudy
11:53 AM 68.0 °F 53.1 °F 59% 29.68 in 10.0 mi SSW 6.9 mph - N/A   Partly Cloudy
12:53 PM 70.0 °F 53.1 °F 55% 29.67 in 10.0 mi SSW 6.9 mph - N/A   Clear
1:53 PM 72.0 °F 54.0 °F 53% 29.67 in 10.0 mi SSW 8.1 mph - 0.00 in   Clear
2:53 PM 73.0 °F 54.0 °F 51% 29.67 in 8.0 mi SW 8.1 mph - N/A   Clear
3:53 PM 73.9 °F 54.0 °F 50% 29.66 in 9.0 mi South 10.4 mph - N/A   Clear
4:53 PM 73.9 °F 52.0 °F 46% 29.65 in 9.0 mi SSE 9.2 mph - N/A   Clear
5:53 PM 75.0 °F 52.0 °F 44% 29.65 in 8.0 mi SSW 8.1 mph - N/A   Clear
6:53 PM 77.0 °F 51.1 °F 40% 29.64 in 10.0 mi SW 9.2 mph - N/A   Clear
7:53 PM 66.9 °F 53.1 °F 61% 29.65 in 10.0 mi East 5.8 mph - N/A   Clear
8:53 PM 63.0 °F 52.0 °F 67% 29.66 in 10.0 mi East 3.5 mph - N/A   Clear
9:53 PM 62.1 °F 52.0 °F 70% 29.67 in 10.0 mi Calm Calm - N/A   Partly Cloudy
10:53 PM 61.0 °F 53.1 °F 75% 29.67 in 9.0 mi Calm Calm - N/A   Mostly Cloudy
11:53 PM 59.0 °F 53.1 °F 81% 29.67 in 10.0 mi ESE 4.6 mph - N/A   Clear